Content
SEND FEEDBACK

Daily
Averages
Monthly
Summary
United States of America

KENMORE, WASHINGTON


Home > North America > United States > Washington
Elevation: 42 feet     Latitude: 47 42N     Longitude: 122 19W

WEATHER
 
SELECT A DAY
Number of Records: 191,189;   Date Range: 1/1/95 - 10/22/14
 
SHARE

PRINT THIS DATA

[ ← Previous Day ]
WEATHER ALMANAC - JANUARY 31, 2013
[ Next Day → ]
[ °C ]   °F
Weather ElementAverageHighLow
Temperature49.1 °F52 °F (1:53 pm)46.4 °F (5:49 am)
Dewpoint44.3 °F46 °F (9:53 pm)43 °F (7:53 am)
Humidity83.5 %93 % (5:49 am)74 % (2:53 pm)
Barometer30.35 in30.40 in (2:53 am)30.30 in (3:53 pm)
Wind Speed6.7 mph11.5 mph (1:53 pm)
Wind Gust23 mph (1:24 pm)
Weather ElementAverage
Visibility9.1 mi
Wind DirectionESE (127.2 °)

Weather ElementTotal
Precipitation0.08 in
Heating Degree Days15.8 (Base 65)
Averaged from 32 records on January 31, 2013
WEATHER CONDITIONS BREAKOUT
WIND DIRECTION BREAKOUT
WEATHER BY HOUR - JANUARY 31, 2013
[ °C ]   °F
Local TimeTemperatureDewpointHumidityBarometerVisibilityWind DirectionWind SpeedGust SpeedPrecipitationEventsConditions
1:20 AM48.2 °F44.6 °F87 %30.38 in10.0 miSSE (160°)5.8 mphOvercast
1:39 AM48.2 °F44.6 °F87 %30.39 in10.0 miSSE (160°)4.6 mphOvercast
1:53 AM48.0 °F45.0 °F89 %30.39 in10.0 miCalmOvercast
2:53 AM48.0 °F45.0 °F89 %30.40 in10.0 miSSE (150°)5.8 mphOvercast
3:53 AM48.0 °F45.0 °F89 %30.40 in10.0 miSSE (150°)3.5 mph0.01 inRainLight Rain
4:53 AM48.0 °F44.1 °F86 %30.39 in10.0 miESE (120°)4.6 mph0.01 inOvercast
5:49 AM46.4 °F44.6 °F93 %30.38 in10.0 miSSE (150°)5.8 mphOvercast
5:53 AM48.0 °F44.1 °F86 %30.38 in10.0 miVariable6.9 mphOvercast
5:58 AM48.2 °F44.6 °F87 %30.38 in10.0 miSSE (150°)8.1 mphOvercast
6:53 AM48.0 °F45.0 °F89 %30.38 in10.0 miSE (140°)9.2 mphOvercast
7:53 AM48.9 °F43.0 °F80 %30.38 in10.0 miSouth (170°)6.9 mphOvercast
8:53 AM48.9 °F43.0 °F80 %30.37 in10.0 miSSE (160°)8.1 mphOvercast
9:00 AM48.2 °F44.6 °F87 %30.37 in10.0 miSSE (160°)8.1 mphOvercast
9:13 AM48.2 °F44.6 °F87 %30.37 in10.0 miSSE (150°)9.2 mph0.00 inRainLight Rain
9:53 AM48.9 °F43.0 °F80 %30.37 in10.0 miSSE (150°)9.2 mph0.00 inOvercast
10:53 AM48.9 °F43.0 °F80 %30.37 in10.0 miSSE (160°)10.4 mph0.03 inOvercast
11:53 AM50.0 °F44.1 °F80 %30.35 in10.0 miSSE (160°)9.2 mph0.00 inMostly Cloudy
12:53 PM51.1 °F44.1 °F77 %30.34 in10.0 miSouth (170°)9.2 mphMostly Cloudy
1:24 PM50.0 °F44.6 °F82 %30.32 in10.0 miSouth (170°)10.4 mph23.0 mphOvercast
1:31 PM51.8 °F44.6 °F76 %30.32 in10.0 miSouth (170°)9.2 mph19.6 mphMostly Cloudy
1:53 PM52.0 °F45.0 °F77 %30.32 in10.0 miSouth (170°)11.5 mphMostly Cloudy
2:53 PM51.1 °F43.0 °F74 %30.31 in10.0 miSSE (160°)11.5 mphMostly Cloudy
3:53 PM51.1 °F43.0 °F74 %30.30 in10.0 miSSE (160°)9.2 mphOvercast
4:53 PM51.1 °F43.0 °F74 %30.31 in10.0 miVariable5.8 mphOvercast
5:53 PM50.0 °F43.0 °F77 %30.32 in10.0 miSouth (190°)8.1 mphOvercast
6:46 PM50.0 °F44.6 °F82 %30.32 in9.0 miVariable5.8 mphOvercast
6:53 PM48.9 °F44.1 °F83 %30.32 in5.0 miSSE (150°)6.9 mphHaze
7:53 PM48.9 °F45.0 °F86 %30.32 in4.0 miSSE (150°)3.5 mph0.01 inOvercast
8:53 PM48.9 °F45.0 °F86 %30.32 in3.0 miSSE (150°)3.5 mphOvercast
9:53 PM48.0 °F46.0 °F93 %30.32 in3.0 miCalm0.01 inOvercast
10:53 PM48.0 °F45.0 °F89 %30.32 in8.0 miSE (140°)3.5 mphOvercast
11:53 PM48.9 °F45.0 °F86 %30.33 in10.0 miCalm0.01 inOvercast
Hourly data recorded from KBFI, located miles away from Kenmore, Washington







STORIES FROM OUR PARTNERS